Location: Bacea
(45.9500°N, 22.6667°E)
Time: 01:41:25
(UTC+00:00)

Cosmos 967 Rocket - Pass Details

Date: 16 October 2021
Orbit: 943 x 994 km, 65.8° (Epoch: 02 December)

Event Time Altitude Azimuth Distance (km) Brightness Sun altitude
Rises 16:59:27 0° 325° (NW) 3,702 8.1 -14.3°
Reaches altitude 10° 17:02:01 10° 326° (NW) 2,756 7.4 -14.8°
Maximum altitude 17:08:31 87° 54° (NE) 1,001 4.5 -15.9°
Drops below altitude 10° 17:15:00 10° 146° (SE) 2,751 6.5 -17.0°
Enters shadow 17:15:22 - 146° (SE) 2,883 6.6 -17.1°
